Location: Dehesa de la Cepeda
(40.6574°N, 4.3013°W)
Time: 05:40:58
(UTC+00:00)

Tiros 1 despin weight - All Passes

Search period start: 31 July 2021 00:00
Search period end: 10 August 2021 00:00
Orbit: 593 x 642 km, 48.2° (Epoch: 30 July)

Date Brightness Start Highest point End Pass type
(mag) Time Alt. Az. Time Alt. Az. Time Alt. Az.
31 Jul - 12:18:42 10° S 12:21:56 19° SE 12:25:11 10° E daylight
31 Jul - 13:58:19 10° WSW 14:03:00 88° SE 14:07:43 10° ENE daylight
31 Jul - 15:40:35 10° W 15:44:57 37° NNW 15:49:19 10° ENE daylight
31 Jul - 17:23:00 10° WNW 17:27:19 35° N 17:31:35 10° ENE daylight
31 Jul - 19:04:39 10° WNW 19:09:21 78° NNE 19:13:59 10° ESE daylight
31 Jul - 20:46:52 10° W 20:50:32 23° SW 20:54:10 10° S visible
01 Aug - 12:33:42 10° SSW 12:37:55 35° SE 12:42:10 10° ENE daylight
01 Aug - 14:14:43 10° WSW 14:19:21 59° NNW 14:24:00 10° ENE daylight
01 Aug - 15:57:17 10° WNW 16:01:32 32° N 16:05:46 10° ENE daylight
01 Aug - 17:39:23 10° NW 17:43:52 43° NNE 17:48:18 10° E daylight
01 Aug - 19:20:59 10° WNW 19:25:37 62° SW 19:30:10 10° SE daylight
01 Aug - 21:04:50 10° WSW 21:06:26 12° SW 21:08:02 10° SSW visible
02 Aug - 11:11:20 10° SSE 11:13:11 12° SE 11:15:02 10° ESE daylight
02 Aug - 12:49:26 10° SW 12:54:01 64° SE 12:58:41 10° ENE daylight
02 Aug - 14:31:20 10° W 14:35:47 42° NNW 14:40:17 10° NE daylight
02 Aug - 16:13:53 10° WNW 16:18:08 33° N 16:22:22 10° ENE daylight
02 Aug - 17:55:40 10° WNW 18:00:19 60° NNE 18:04:55 10° ESE daylight
02 Aug - 19:37:31 10° WNW 19:41:43 34° SW 19:45:53 10° SSE daylight
03 Aug - 11:25:22 10° S 11:29:04 24° SE 11:32:50 10° E daylight
03 Aug - 13:05:38 10° WSW 13:10:18 77° NNW 13:15:00 10° ENE daylight
03 Aug - 14:48:02 10° WNW 14:52:20 34° N 14:56:38 10° ENE daylight
03 Aug - 16:30:20 10° WNW 16:34:43 37° NNE 16:39:04 10° E daylight
03 Aug - 18:11:56 10° WNW 18:16:38 86° SSW 18:21:18 10° ESE daylight
03 Aug - 19:54:33 10° W 19:57:42 18° SW 20:00:48 10° S visible
04 Aug - 11:40:43 10° SSW 11:45:06 45° SE 11:49:34 10° ENE daylight
04 Aug - 13:22:07 10° W 13:26:40 51° NNW 13:31:15 10° NE daylight
04 Aug - 15:04:43 10° WNW 15:08:56 32° N 15:13:10 10° ENE daylight
04 Aug - 16:46:40 10° NW 16:51:14 48° NNE 16:55:45 10° E daylight
04 Aug - 18:28:19 10° WNW 18:32:50 49° SW 18:37:18 10° SE daylight
05 Aug - 10:17:27 10° S 10:20:17 16° SE 10:23:10 10° E daylight
05 Aug - 11:56:39 10° SW 12:01:17 80° SSE 12:05:58 10° ENE daylight
05 Aug - 13:38:48 10° W 13:43:10 38° NNW 13:47:34 10° NE daylight
05 Aug - 15:21:15 10° WNW 15:25:32 34° N 15:29:49 10° ENE daylight
05 Aug - 17:02:55 10° WNW 17:07:38 72° NNE 17:12:17 10° ESE daylight
05 Aug - 18:45:00 10° W 18:48:53 26° SW 18:52:46 10° SSE daylight
06 Aug - 10:32:12 10° SSW 10:36:14 31° SE 10:40:20 10° ENE daylight
06 Aug - 12:12:59 10° WSW 12:17:36 64° NNW 12:22:16 10° ENE daylight
06 Aug - 13:55:30 10° WNW 13:59:44 33° N 14:04:00 10° ENE daylight
06 Aug - 15:37:38 10° NW 15:42:05 41° NNE 15:46:32 10° E daylight
06 Aug - 17:19:13 10° WNW 17:23:54 70° SSW 17:28:32 10° SE daylight
06 Aug - 19:02:28 10° W 19:04:49 14° SW 19:07:08 10° SSW daylight
07 Aug - 09:10:56 10° SE 09:11:33 10° SE 09:12:11 10° ESE daylight
07 Aug - 10:47:49 10° SW 10:52:19 57° SE 10:56:55 10° ENE daylight
07 Aug - 12:29:33 10° W 12:34:02 44° NNW 12:38:32 10° NE daylight
07 Aug - 14:12:07 10° WNW 14:16:20 32° N 14:20:35 10° ENE daylight
07 Aug - 15:53:56 10° WNW 15:58:34 56° NNE 16:03:10 10° ESE daylight
07 Aug - 17:35:41 10° WNW 17:40:02 38° SW 17:44:21 10° SSE daylight
08 Aug - 09:23:59 10° S 09:27:25 21° SE 09:30:54 10° E daylight
08 Aug - 11:03:56 10° WSW 11:08:34 84° NNW 11:13:15 10° ENE daylight
08 Aug - 12:46:16 10° WNW 12:50:33 35° N 12:54:53 10° ENE daylight
08 Aug - 14:28:35 10° WNW 14:32:56 36° N 14:37:16 10° ENE daylight
08 Aug - 16:10:12 10° WNW 16:14:54 86° NNE 16:19:36 10° ESE daylight
08 Aug - 17:52:34 10° W 17:56:02 21° SW 17:59:29 10° S daylight
09 Aug - 09:39:10 10° SSW 09:43:26 39° SE 09:47:45 10° ENE daylight
09 Aug - 11:20:23 10° W 11:24:55 54° NNW 11:29:31 10° ENE daylight
09 Aug - 13:02:56 10° WNW 13:07:08 32° N 13:11:22 10° ENE daylight
09 Aug - 14:44:56 10° NW 14:49:27 45° NNE 14:53:58 10° E daylight
09 Aug - 16:26:32 10° WNW 16:31:08 55° SW 16:35:42 10° SE daylight
09 Aug - 18:11:47 10° SW 18:11:54 10° SW 18:12:02 10° SW daylight
